QPF
0.00 0.01 0.00 0.00 0.00 0.00 0.00 0.00 0.00 0.00 0.01 0.06 0.05 0.06 0.04 0.04 0.12 0.16 0.03 0.02 0.00 0.00 0.00 0.00 0.00 0.00 0.00 0.00 0.00 0.00 0.00 0.00 0.00 0.00 0.00 0.00 0.00 0.00 0.00 0.00 0.00 0.00 0.00 0.00 0.00
0.01 0.02 0.01 0.01 0.00 0.00 0.00 0.00 0.03 0.02 0.04 0.14 0.20 0.13 0.06 0.07 0.06 0.10 0.04 0.02 0.01 0.00 0.00 0.00 0.00 0.00 0.00 0.00 0.00 0.00 0.00 0.00 0.00 0.00 0.00 0.00 0.00 0.00 0.00 0.00 0.00 0.00 0.00 0.00 0.00
0.00 0.00 0.01 0.02 0.00 0.01 0.00 0.00 0.02 0.02 0.02 0.04 0.06 0.06 0.06 0.02 0.03 0.04 0.05 0.05 0.03 0.02 0.00 0.00 0.00 0.00 0.00 0.00 0.00 0.00 0.00 0.00 0.00 0.00 0.00 0.00 0.00 0.00 0.00 0.00 0.00 0.00 0.00 0.00 0.00
0.00 0.00 0.01 0.03 0.00 0.02 0.00 0.00 0.03 0.03 0.05 0.03 0.00 0.03 0.01 0.01 0.01 0.02 0.02 0.10 0.12 0.03 0.00 0.00 0.00 0.00 0.00 0.00 0.00 0.00 0.00 0.00 0.00 0.00 0.00 0.00 0.00 0.00 0.00 0.00 0.00 0.00 0.00 0.00 0.00
0.00 0.00 0.01 0.02 0.01 0.00 0.00 0.01 0.02 0.02 0.04 0.03 0.01 0.01 0.00 0.00 0.00 0.01 0.06 0.04 0.08 0.02 0.00 0.00 0.00 0.00 0.00 0.00 0.00 0.00 0.00 0.00 0.00 0.00 0.00 0.00 0.00 0.00 0.00 0.00 0.00 0.00 0.00 0.00 0.00
0.00 0.00 0.00 0.00 0.00 0.01 0.03 0.09 0.08 0.06 0.05 0.02 0.00 0.00 0.00 0.00 0.00 0.00 0.04 0.05 0.01 0.00 0.00 0.00 0.00 0.00 0.00 0.00 0.00 0.00 0.00 0.00 0.00 0.00 0.00 0.00 0.00 0.00 0.00 0.00 0.00 0.00 0.00 0.00 0.00
0.00 0.00 0.00 0.00 0.00 0.02 0.10 0.14 0.15 0.18 0.10 0.03 0.00 0.00 0.00 0.00 0.00 0.01 0.00 0.02 0.00 0.00 0.00 0.00 0.00 0.00 0.00 0.00 0.00 0.00 0.00 0.00 0.00 0.00 0.00 0.00 0.00 0.00 0.00 0.00 0.00 0.00 0.00 0.00 0.00
0.00 0.00 0.00 0.00 0.00 0.00 0.02 0.04 0.04 0.03 0.04 0.07 0.05 0.00 0.00 0.00 0.00 0.01 0.00 0.00 0.00 0.00 0.00 0.00 0.00 0.00 0.00 0.00 0.00 0.00 0.00 0.00 0.00 0.00 0.00 0.00 0.00 0.00 0.00 0.00 0.00 0.00 0.00 0.00 0.00
0.00 0.00 0.00 0.00 0.00 0.00 0.00 0.00 0.00 0.00 0.01 0.02 0.03 0.00 0.00 0.00 0.00 0.00 0.00 0.00 0.00 0.00 0.00 0.00 0.00 0.00 0.00 0.00 0.00 0.00 0.00 0.00 0.00 0.00 0.00 0.00 0.00 0.00 0.00 0.00 0.00 0.00 0.00 0.00 0.00
0.00 0.00 0.00 0.00 0.00 0.00 0.00 0.00 0.00 0.00 0.00 0.00 0.00 0.00 0.00 0.00 0.00 0.00 0.00 0.00 0.00 0.00 0.00 0.00 0.00 0.00 0.00 0.00 0.00 0.00 0.00 0.00 0.00 0.00 0.00 0.00 0.00 0.00 0.00 0.00 0.00 0.00 0.00 0.00 0.00
0.00 0.00 0.00 0.00 0.00 0.00 0.00 0.00 0.00 0.00 0.00 0.00 0.00 0.00 0.00 0.00 0.00 0.00 0.00 0.00 0.00 0.00 0.00 0.00 0.00 0.00 0.00 0.00 0.00 0.00 0.00 0.00 0.00 0.00 0.00 0.00 0.00 0.00 0.00 0.00 0.00 0.00 0.00 0.00 0.00
0.00 0.00 0.00 0.00 0.00 0.00 0.00 0.00 0.00 0.00 0.00 0.00 0.00 0.00 0.00 0.00 0.00 0.01 0.00 0.00 0.00 0.00 0.00 0.00 0.00 0.00 0.00 0.00 0.00 0.00 0.00 0.00 0.00 0.00 0.00 0.00 0.00 0.00 0.00 0.00 0.00 0.00 0.00 0.00 0.00
0.00 0.00 0.00 0.00 0.00 0.00 0.00 0.00 0.00 0.00 0.00 0.00 0.00 0.00 0.00 0.01 0.00 0.00 0.00 0.00 0.00 0.00 0.00 0.00 0.00 0.00 0.00 0.00 0.00 0.00 0.00 0.00 0.00 0.00 0.00 0.00 0.00 0.00 0.00 0.00 0.00 0.00 0.00 0.00 0.00
0.00 0.00 0.00 0.00 0.00 0.00 0.00 0.00 0.00 0.00 0.00 0.00 0.00 0.00 0.00 0.00 0.00 0.00 0.00 0.00 0.00 0.00 0.00 0.00 0.00 0.00 0.00 0.00 0.00 0.00 0.00 0.00 0.00 0.00 0.00 0.00 0.00 0.00 0.00 0.00 0.00 0.00 0.00 0.00 0.00
0.00 0.00 0.00 0.00 0.00 0.00 0.00 0.00 0.00 0.00 0.00 0.00 0.00 0.00 0.00 0.00 0.00 0.00 0.00 0.00 0.00 0.00 0.00 0.00 0.00 0.00 0.00 0.00 0.00 0.00 0.00 0.00 0.00 0.00 0.00 0.00 0.00 0.00 0.00 0.00 0.00 0.00 0.00 0.00 0.00
0.00 0.00 0.00 0.00 0.00 0.00 0.00 0.00 0.00 0.00 0.00 0.00 0.00 0.00 0.00 0.00 0.00 0.00 0.00 0.00 0.00 0.00 0.00 0.00 0.00 0.00 0.00 0.00 0.00 0.00 0.00 0.00 0.00 0.00 0.00 0.00 0.00 0.00 0.00 0.00 0.00 0.00 0.00 0.00 0.00
0.00 0.00 0.00 0.00 0.00 0.00 0.00 0.00 0.00 0.00 0.00 0.00 0.00 0.00 0.00 0.00 0.00 0.00 0.00 0.00 0.00 0.00 0.00 0.00 0.00 0.00 0.00 0.00 0.00 0.00 0.00 0.00 0.00 0.00 0.00 0.00 0.00 0.00 0.00 0.00 0.00 0.00 0.00 0.00 0.00
0.00 0.00 0.00 0.00 0.00 0.00 0.00 0.00 0.00 0.00 0.00 0.00 0.00 0.00 0.00 0.00 0.00 0.00 0.00 0.00 0.00 0.00 0.00 0.00 0.00 0.00 0.00 0.00 0.00 0.00 0.00 0.00 0.00 0.00 0.00 0.00 0.00 0.00 0.00 0.00 0.00 0.00 0.00 0.00 0.00
0.00 0.00 0.00 0.00 0.00 0.00 0.00 0.00 0.00 0.00 0.00 0.00 0.00 0.00 0.00 0.00 0.00 0.00 0.00 0.00 0.00 0.00 0.00 0.00 0.00 0.00 0.00 0.00 0.00 0.00 0.00 0.00 0.00 0.00 0.00 0.00 0.00 0.00 0.00 0.00 0.00 0.00 0.00 0.00 0.00
0.00 0.00 0.00 0.00 0.00 0.00 0.00 0.00 0.00 0.00 0.00 0.00 0.00 0.00 0.00 0.00 0.00 0.00 0.00 0.00 0.00 0.00 0.00 0.00 0.00 0.00 0.00 0.00 0.00 0.00 0.00 0.00 0.00 0.00 0.00 0.00 0.00 0.00 0.00 0.00 0.00 0.00 0.00 0.00 0.00
0.00 0.00 0.00 0.00 0.00 0.00 0.00 0.00 0.00 0.00 0.00 0.00 0.00 0.00 0.00 0.00 0.00 0.00 0.00 0.00 0.00 0.00 0.00 0.00 0.00 0.00 0.00 0.00 0.00 0.00 0.00 0.00 0.00 0.00 0.00 0.00 0.00 0.00 0.00 0.00 0.00 0.00 0.00 0.00 0.00
0.00 0.00 0.00 0.00 0.00 0.00 0.00 0.00 0.00 0.00 0.00 0.00 0.00 0.00 0.00 0.00 0.00 0.00 0.00 0.00 0.00 0.00 0.00 0.00 0.00 0.00 0.00 0.00 0.00 0.00 0.00 0.00 0.00 0.00 0.00 0.00 0.00 0.00 0.00 0.00 0.00 0.00 0.00 0.00 0.00
0.00 0.00 0.00 0.00 0.00 0.00 0.00 0.00 0.00 0.00 0.00 0.00 0.00 0.00 0.00 0.00 0.00 0.00 0.00 0.00 0.00 0.00 0.00 0.00 0.00 0.00 0.00 0.00 0.00 0.00 0.00 0.00 0.00 0.00 0.00 0.00 0.00 0.00 0.00 0.00 0.00 0.00 0.00 0.00 0.00
0.00 0.00 0.00 0.00 0.00 0.00 0.00 0.00 0.00 0.00 0.00 0.00 0.00 0.00 0.00 0.00 0.00 0.00 0.00 0.00 0.00 0.00 0.00 0.00 0.00 0.00 0.00 0.00 0.00 0.00 0.00 0.00 0.00 0.00 0.00 0.00 0.00 0.00 0.00 0.00 0.00 0.00 0.00 0.00 0.00
0.00 0.00 0.00 0.00 0.00 0.00 0.00 0.00 0.00 0.00 0.00 0.00 0.00 0.00 0.00 0.00 0.00 0.00 0.00 0.00 0.00 0.00 0.00 0.00 0.00 0.00 0.00 0.00 0.00 0.00 0.00 0.00 0.00 0.00 0.00 0.00 0.00 0.00 0.00 0.00 0.00 0.00 0.00 0.00 0.00
0.00 0.00 0.00 0.00 0.00 0.00 0.00 0.00 0.00 0.00 0.00 0.00 0.00 0.00 0.00 0.00 0.00 0.00 0.00 0.00 0.00 0.00 0.00 0.00 0.00 0.00 0.00 0.00 0.00 0.00 0.00 0.00 0.00 0.00 0.00 0.00 0.00 0.00 0.00 0.00 0.00 0.00 0.00 0.00 0.00
0.00 0.00 0.00 0.00 0.00 0.00 0.00 0.00 0.00 0.00 0.00 0.00 0.00 0.00 0.00 0.00 0.00 0.00 0.00 0.00 0.00 0.00 0.00 0.00 0.00 0.00 0.00 0.00 0.00 0.00 0.00 0.00 0.00 0.00 0.00 0.00 0.00 0.00 0.00 0.00 0.00 0.00 0.00 0.00 0.00
MSLP
1016.28 1015.82 1015.29 1014.82 1014.50 1014.14 1013.81 1013.52 1013.08 1012.49 1012.14 1011.93 1011.88 1012.47 1013.31 1013.93 1014.54 1015.34 1015.55 1015.46 1015.66 1015.38 1015.55 1016.07 1016.46 1016.56 1016.74 1016.77 1016.65 1016.89 1017.40 1017.59 1017.17 1017.01 1016.48 1016.52 1016.55 1017.05 1017.38 1017.82 1018.40 1018.69 1019.04 1019.52 1020.13
1016.47 1015.87 1015.18 1014.47 1013.97 1013.79 1013.52 1013.22 1012.79 1012.24 1011.94 1011.60 1011.63 1012.39 1013.20 1013.84 1014.64 1015.20 1015.17 1015.30 1015.44 1015.18 1015.81 1016.16 1016.45 1016.63 1016.80 1016.80 1016.76 1016.82 1017.37 1017.05 1016.70 1016.45 1016.45 1016.49 1016.47 1016.87 1017.52 1017.98 1018.55 1019.04 1019.61 1019.96 1020.41
1016.48 1015.85 1015.08 1014.24 1014.00 1013.71 1013.54 1013.27 1012.73 1012.33 1012.08 1011.98 1012.05 1012.46 1013.18 1013.78 1014.98 1014.99 1015.38 1015.35 1015.19 1015.32 1015.69 1016.01 1016.20 1016.45 1016.54 1016.70 1016.86 1016.91 1017.09 1017.02 1016.91 1016.71 1016.55 1016.55 1016.80 1016.92 1017.34 1018.12 1018.08 1018.52 1019.44 1020.27 1020.61
1016.59 1015.95 1015.25 1014.39 1013.86 1013.38 1013.61 1013.19 1012.75 1012.52 1012.07 1012.08 1012.11 1012.27 1012.98 1013.72 1015.01 1014.95 1015.01 1015.55 1015.40 1015.59 1015.77 1016.00 1016.30 1016.53 1016.53 1016.74 1016.77 1016.99 1017.36 1017.30 1017.24 1017.02 1016.73 1016.78 1016.84 1017.09 1017.48 1017.96 1018.10 1018.30 1018.98 1019.99 1020.53
1016.70 1016.25 1015.64 1014.94 1014.26 1013.99 1013.89 1013.54 1013.36 1013.06 1012.84 1012.93 1013.07 1013.16 1013.22 1013.99 1014.72 1014.89 1014.95 1015.37 1015.65 1015.72 1015.81 1015.97 1016.08 1016.20 1016.43 1016.63 1016.96 1017.21 1017.57 1017.59 1017.56 1017.32 1017.07 1016.99 1017.02 1017.18 1017.96 1018.29 1018.60 1018.88 1019.38 1019.91 1020.44
1017.02 1016.54 1016.16 1015.55 1014.80 1014.45 1014.28 1014.30 1014.21 1014.12 1013.94 1013.96 1014.01 1013.88 1013.85 1014.23 1014.46 1014.71 1014.87 1015.08 1016.13 1015.69 1015.76 1015.77 1015.49 1015.62 1016.37 1016.76 1017.07 1017.36 1017.60 1017.89 1017.92 1017.69 1017.49 1017.36 1017.40 1017.18 1018.42 1018.62 1019.03 1019.40 1019.66 1020.02 1020.46
1017.24 1016.90 1016.52 1016.14 1015.50 1014.44 1014.88 1014.99 1015.03 1014.92 1014.75 1014.58 1014.27 1013.98 1013.80 1014.18 1014.22 1014.58 1014.63 1015.60 1015.72 1015.34 1015.52 1015.28 1015.00 1015.53 1016.06 1016.89 1017.38 1017.50 1018.03 1018.04 1018.29 1017.94 1017.78 1017.73 1017.99 1018.05 1018.56 1018.76 1019.21 1019.71 1020.01 1020.26 1020.59
1017.21 1017.05 1016.55 1016.27 1015.94 1015.52 1014.38 1014.49 1014.87 1014.96 1014.86 1015.03 1014.48 1014.16 1014.12 1014.09 1014.14 1014.51 1014.88 1015.44 1015.25 1015.21 1015.22 1014.92 1014.95 1015.77 1016.34 1016.87 1017.48 1017.80 1018.05 1018.45 1018.59 1018.16 1017.86 1017.83 1018.32 1018.57 1018.70 1018.90 1019.43 1019.78 1020.15 1020.33 1020.42
1017.37 1016.80 1016.64 1016.07 1015.82 1015.52 1015.20 1014.92 1014.81 1014.79 1014.47 1014.61 1014.90 1014.46 1014.13 1013.88 1014.21 1014.02 1014.57 1014.82 1014.92 1015.04 1015.10 1015.04 1015.25 1016.33 1016.92 1017.23 1018.24 1018.57 1018.66 1018.77 1018.86 1018.54 1018.19 1018.05 1018.53 1018.74 1018.81 1019.05 1019.48 1019.78 1020.09 1020.35 1020.36
1017.47 1017.03 1016.37 1015.99 1015.79 1015.13 1014.95 1014.85 1014.36 1014.64 1014.32 1014.50 1014.63 1014.83 1014.36 1013.62 1013.78 1013.95 1013.98 1014.30 1014.63 1015.11 1015.33 1015.50 1016.05 1016.83 1017.64 1017.59 1018.02 1018.55 1018.91 1019.13 1019.07 1019.19 1018.61 1018.57 1018.75 1018.84 1019.13 1019.32 1019.62 1019.85 1020.16 1020.33 1020.42
1017.54 1017.10 1016.42 1015.83 1015.58 1015.23 1014.81 1015.02 1015.39 1015.26 1014.57 1014.66 1014.47 1013.98 1013.65 1013.42 1013.47 1013.86 1013.83 1014.09 1014.54 1015.41 1016.11 1016.38 1017.02 1017.66 1018.00 1017.69 1017.61 1017.99 1018.50 1019.27 1019.66 1019.54 1019.29 1019.23 1019.09 1019.01 1019.26 1019.55 1019.88 1020.14 1020.37 1020.42 1020.60
1017.40 1017.25 1016.69 1016.00 1015.66 1015.18 1015.26 1016.33 1017.25 1017.56 1016.05 1014.37 1014.11 1013.76 1013.39 1013.41 1013.67 1013.76 1013.92 1014.36 1015.05 1016.31 1016.64 1017.39 1018.02 1018.64 1018.50 1018.14 1018.02 1018.36 1018.99 1020.03 1020.22 1019.90 1019.71 1019.78 1019.34 1019.23 1019.43 1019.71 1019.98 1020.25 1020.39 1020.48 1020.58
1017.28 1016.97 1016.59 1016.24 1015.74 1015.95 1016.70 1017.33 1017.35 1017.42 1016.77 1015.07 1014.35 1013.81 1013.73 1013.45 1014.01 1014.04 1013.96 1014.86 1016.13 1017.11 1017.60 1018.46 1019.11 1018.84 1018.88 1018.82 1018.74 1019.62 1019.52 1020.21 1020.26 1020.55 1020.78 1020.50 1020.02 1019.54 1019.66 1019.88 1020.06 1020.27 1020.47 1020.58 1020.62
1017.39 1016.87 1016.36 1015.96 1016.21 1016.89 1017.20 1017.33 1017.22 1017.24 1017.06 1016.16 1014.55 1013.77 1013.73 1013.73 1014.40 1014.46 1014.51 1015.11 1016.70 1017.90 1018.63 1019.52 1019.43 1019.23 1019.26 1019.47 1019.54 1020.10 1020.09 1020.24 1020.78 1021.21 1021.82 1021.75 1020.96 1019.82 1019.74 1020.00 1020.11 1020.28 1020.52 1020.58 1020.71
1017.40 1017.08 1016.63 1015.99 1016.73 1017.11 1017.48 1017.18 1017.11 1017.22 1017.42 1016.55 1015.04 1013.82 1013.92 1014.27 1014.91 1015.22 1014.91 1015.09 1017.28 1018.49 1018.99 1020.65 1020.21 1020.03 1019.96 1020.31 1019.99 1020.55 1020.42 1020.86 1021.51 1022.11 1022.56 1022.71 1022.42 1019.90 1020.05 1020.01 1019.94 1020.17 1020.45 1020.60 1020.85
1017.24 1016.97 1016.75 1016.67 1016.96 1017.19 1017.09 1017.03 1017.26 1017.94 1018.75 1017.16 1015.76 1015.02 1015.00 1015.22 1015.52 1015.41 1015.43 1015.90 1017.75 1018.60 1019.46 1020.61 1020.48 1020.55 1020.62 1020.48 1020.18 1020.50 1020.76 1021.61 1022.46 1023.04 1023.93 1024.00 1023.56 1020.58 1020.00 1019.24 1019.54 1020.03 1020.41 1020.67 1020.99
1017.27 1017.02 1016.71 1017.04 1017.27 1016.95 1016.87 1017.16 1018.11 1018.85 1019.47 1018.11 1017.06 1016.34 1016.28 1016.54 1016.61 1016.75 1017.44 1017.97 1018.79 1019.51 1020.64 1021.05 1021.27 1021.13 1020.84 1020.67 1020.62 1020.69 1021.26 1022.92 1024.12 1024.37 1024.87 1024.72 1024.18 1020.35 1019.28 1019.23 1019.33 1019.73 1020.43 1020.82 1021.20
1017.12 1017.01 1016.96 1017.07 1017.14 1016.96 1017.11 1017.61 1019.27 1020.34 1019.43 1018.25 1017.53 1017.04 1017.19 1017.35 1017.66 1017.88 1018.34 1019.18 1019.18 1019.43 1021.19 1021.79 1022.35 1021.90 1021.50 1021.41 1021.06 1021.41 1021.61 1022.66 1023.98 1025.30 1025.16 1024.96 1022.90 1019.50 1019.41 1019.46 1019.58 1019.93 1020.43 1021.06 1021.50
1017.00 1017.28 1017.33 1017.12 1016.99 1017.08 1017.64 1018.65 1020.30 1020.15 1019.45 1018.58 1017.70 1017.68 1017.86 1017.70 1017.88 1018.37 1019.23 1019.69 1019.75 1019.66 1020.14 1021.45 1022.39 1022.18 1021.79 1021.50 1021.64 1021.80 1022.18 1022.93 1024.00 1026.18 1025.37 1023.41 1021.43 1019.63 1019.59 1019.81 1020.09 1020.48 1020.94 1021.33 1021.72
1017.50 1017.63 1017.56 1017.19 1017.00 1017.22 1018.08 1020.00 1020.21 1019.65 1019.01 1018.49 1018.26 1018.08 1018.23 1018.23 1018.38 1018.77 1019.50 1019.86 1019.82 1019.69 1019.70 1020.86 1022.04 1022.45 1022.03 1021.84 1021.90 1021.92 1022.52 1022.98 1023.61 1024.96 1024.82 1023.07 1021.91 1019.93 1019.80 1019.96 1020.39 1020.90 1021.09 1021.43 1021.79
1017.63 1017.82 1017.35 1017.09 1017.11 1017.80 1019.79 1020.37 1019.92 1019.23 1018.90 1018.38 1018.23 1018.28 1018.57 1018.75 1018.97 1019.46 1020.03 1020.22 1020.11 1019.88 1019.78 1020.33 1020.87 1022.80 1022.47 1022.35 1022.32 1022.57 1022.64 1023.28 1023.84 1024.22 1024.29 1023.40 1020.89 1019.30 1019.31 1019.62 1020.12 1020.52 1020.80 1021.15 1021.57
1018.13 1018.39 1017.44 1017.16 1017.96 1019.77 1020.41 1019.89 1019.29 1019.05 1018.75 1018.47 1018.31 1018.27 1018.57 1018.88 1019.46 1019.80 1020.27 1020.54 1020.36 1020.24 1020.32 1020.54 1021.22 1022.69 1022.80 1022.69 1022.58 1022.54 1022.73 1023.06 1023.91 1024.61 1024.66 1023.81 1020.45 1018.96 1019.20 1019.45 1019.75 1020.10 1020.50 1020.92 1021.41
1018.86 1018.77 1017.67 1017.49 1019.17 1020.35 1020.15 1019.83 1019.51 1019.16 1018.90 1018.64 1018.77 1018.80 1018.81 1019.17 1019.72 1019.97 1020.28 1020.43 1020.36 1020.49 1020.67 1020.70 1021.46 1022.53 1022.91 1023.09 1022.89 1022.87 1023.01 1023.32 1023.83 1024.11 1024.09 1023.31 1020.18 1019.06 1019.17 1019.41 1019.71 1020.15 1020.57 1021.07 1021.64
1019.43 1019.53 1019.01 1019.19 1020.06 1019.90 1019.94 1019.70 1019.35 1019.08 1018.99 1018.87 1018.79 1018.67 1018.99 1019.55 1019.76 1020.32 1020.62 1020.77 1020.68 1020.68 1020.68 1020.68 1021.92 1022.37 1022.71 1022.65 1022.70 1023.09 1023.23 1023.55 1023.75 1024.22 1023.41 1021.61 1019.98 1019.29 1019.13 1019.39 1019.73 1020.00 1020.40 1020.94 1021.45
1019.97 1021.16 1020.98 1020.68 1020.61 1020.34 1019.85 1019.61 1019.35 1019.16 1018.98 1018.91 1019.02 1019.10 1019.22 1019.67 1020.08 1020.61 1020.91 1021.02 1021.09 1021.16 1021.27 1021.52 1022.40 1022.78 1022.79 1022.77 1022.72 1022.66 1022.74 1023.09 1023.25 1022.53 1022.36 1020.32 1019.82 1019.00 1019.01 1019.25 1019.29 1019.59 1020.33 1020.88 1021.28
1020.65 1021.19 1021.39 1021.03 1020.57 1020.01 1019.90 1019.87 1019.56 1019.50 1019.47 1019.34 1019.35 1019.48 1019.49 1019.89 1020.27 1020.60 1020.92 1021.34 1021.55 1021.80 1022.07 1022.44 1023.15 1023.36 1023.43 1023.09 1022.92 1022.75 1022.40 1022.73 1022.89 1022.70 1021.96 1021.08 1019.55 1018.63 1018.42 1018.98 1019.39 1019.65 1020.27 1020.70 1021.06
1021.02 1020.96 1020.89 1021.35 1020.87 1020.37 1019.93 1019.57 1019.46 1019.43 1019.78 1019.72 1019.82 1020.02 1020.29 1020.59 1020.70 1021.03 1021.27 1021.67 1021.72 1022.17 1022.91 1023.24 1023.67 1024.21 1023.84 1023.34 1022.76 1022.12 1020.86 1021.34 1021.49 1021.27 1020.99 1020.46 1018.38 1018.20 1018.44 1018.67 1018.62 1018.84 1019.24 1019.49 1019.97
Thickness
5537 5532 5532 5533 5535 5535 5533 5529 5525 5521 5517 5517 5519 5517 5519 5522 5522 5526 5541 5560 5574 5593 5608 5620 5630 5641 5650 5659 5669 5672 5666 5669 5684 5689 5705 5708 5713 5713 5713 5712 5710 5713 5716 5714 5712
5528 5526 5527 5531 5533 5532 5527 5520 5513 5508 5505 5503 5505 5502 5505 5510 5513 5521 5532 5539 5556 5581 5593 5605 5616 5630 5639 5649 5659 5663 5661 5677 5690 5697 5701 5706 5712 5710 5708 5706 5706 5707 5705 5707 5707
5527 5525 5526 5531 5528 5525 5516 5507 5502 5500 5497 5496 5498 5498 5501 5507 5506 5519 5522 5530 5546 5565 5580 5594 5608 5621 5634 5643 5652 5657 5665 5676 5684 5692 5699 5701 5702 5707 5705 5702 5710 5711 5704 5702 5703
5526 5523 5524 5526 5524 5522 5512 5503 5498 5496 5497 5498 5500 5501 5504 5507 5503 5513 5519 5527 5540 5549 5568 5583 5597 5609 5622 5633 5645 5651 5658 5670 5677 5686 5695 5698 5701 5699 5702 5703 5706 5712 5707 5702 5701
5527 5523 5521 5520 5518 5515 5510 5503 5497 5495 5496 5496 5498 5500 5504 5503 5503 5510 5516 5525 5531 5539 5558 5576 5592 5605 5616 5627 5637 5644 5652 5661 5669 5678 5685 5691 5693 5697 5693 5695 5697 5700 5701 5701 5698
5527 5522 5517 5515 5515 5513 5508 5500 5494 5490 5490 5491 5493 5497 5500 5502 5506 5508 5515 5523 5525 5536 5551 5571 5591 5604 5609 5621 5634 5637 5645 5653 5661 5669 5676 5683 5687 5697 5687 5688 5690 5693 5696 5696 5694
5525 5522 5516 5511 5511 5515 5506 5499 5493 5489 5485 5485 5488 5494 5497 5496 5500 5502 5508 5515 5524 5538 5551 5570 5589 5599 5607 5614 5621 5632 5637 5648 5650 5660 5670 5673 5678 5679 5682 5685 5686 5687 5689 5689 5689
5527 5522 5518 5512 5510 5508 5511 5505 5498 5493 5492 5487 5488 5491 5489 5494 5500 5504 5507 5510 5525 5535 5550 5571 5585 5589 5602 5610 5614 5625 5631 5636 5646 5653 5664 5672 5666 5672 5675 5681 5681 5683 5684 5685 5687
5527 5525 5520 5517 5511 5508 5506 5503 5499 5497 5497 5493 5491 5492 5494 5500 5501 5509 5511 5518 5527 5536 5548 5567 5580 5582 5594 5601 5602 5608 5618 5625 5639 5643 5655 5664 5662 5667 5672 5675 5677 5679 5680 5681 5682
5526 5523 5521 5517 5514 5515 5511 5506 5504 5498 5500 5499 5498 5496 5496 5504 5508 5513 5522 5526 5531 5538 5546 5563 5569 5577 5579 5596 5598 5610 5611 5620 5631 5638 5650 5655 5658 5663 5665 5670 5672 5675 5675 5676 5677
5527 5523 5521 5517 5514 5514 5514 5505 5497 5498 5503 5502 5502 5508 5510 5514 5519 5520 5528 5530 5537 5538 5541 5556 5564 5573 5588 5602 5610 5616 5621 5621 5625 5632 5644 5643 5652 5660 5660 5663 5666 5667 5668 5671 5672
5531 5525 5522 5519 5515 5516 5509 5498 5489 5484 5496 5512 5512 5516 5518 5520 5522 5526 5532 5535 5539 5535 5545 5549 5557 5569 5581 5595 5605 5612 5615 5610 5619 5626 5637 5635 5648 5653 5656 5657 5659 5660 5664 5666 5669
5535 5530 5526 5523 5521 5515 5506 5497 5494 5491 5497 5513 5516 5519 5522 5528 5522 5527 5537 5536 5533 5531 5537 5544 5559 5571 5582 5590 5603 5597 5611 5607 5623 5620 5614 5626 5641 5647 5650 5652 5656 5657 5659 5661 5663
5538 5535 5534 5531 5523 5514 5509 5505 5502 5500 5491 5504 5519 5526 5528 5532 5529 5534 5538 5544 5535 5533 5532 5532 5554 5573 5577 5585 5592 5606 5605 5610 5610 5614 5614 5604 5628 5642 5645 5649 5653 5655 5654 5657 5657
5542 5539 5536 5536 5526 5520 5515 5513 5510 5508 5474 5514 5519 5535 5534 5535 5537 5536 5545 5551 5538 5537 5548 5541 5552 5565 5573 5580 5590 5597 5605 5606 5605 5603 5605 5609 5611 5648 5636 5646 5651 5651 5651 5652 5650
5549 5545 5541 5538 5532 5527 5524 5521 5517 5490 5474 5508 5520 5524 5534 5533 5538 5545 5550 5552 5542 5545 5540 5540 5555 5561 5574 5580 5589 5590 5600 5595 5584 5594 5589 5577 5593 5641 5640 5650 5649 5647 5646 5645 5643
5556 5551 5548 5542 5537 5536 5534 5529 5500 5472 5502 5517 5522 5527 5529 5530 5540 5541 5538 5533 5537 5539 5521 5541 5551 5561 5573 5586 5594 5597 5598 5569 5584 5573 5596 5564 5574 5638 5647 5644 5647 5646 5640 5638 5634
5563 5558 5554 5548 5545 5543 5539 5533 5493 5498 5510 5527 5531 5534 5531 5534 5538 5539 5544 5534 5548 5546 5517 5529 5531 5555 5567 5578 5593 5590 5599 5581 5590 5580 5594 5553 5597 5648 5635 5639 5640 5637 5632 5627 5623
5571 5564 5559 5556 5553 5550 5541 5509 5505 5512 5524 5529 5541 5536 5534 5542 5547 5544 5536 5542 5553 5556 5564 5537 5549 5559 5570 5578 5585 5595 5588 5582 5549 5503 5561 5587 5613 5632 5628 5632 5628 5625 5621 5619 5614
5574 5568 5564 5562 5560 5555 5536 5526 5532 5529 5536 5541 5545 5544 5548 5546 5551 5550 5551 5552 5560 5566 5567 5561 5551 5560 5573 5580 5580 5590 5578 5590 5570 5586 5593 5590 5600 5623 5627 5624 5618 5614 5614 5609 5605
5579 5575 5573 5570 5566 5552 5519 5529 5541 5545 5546 5552 5552 5551 5549 5552 5552 5552 5552 5555 5558 5568 5571 5568 5574 5564 5572 5578 5582 5583 5585 5570 5574 5576 5585 5592 5615 5613 5626 5620 5616 5611 5608 5602 5598
5579 5577 5580 5577 5560 5527 5534 5546 5551 5551 5550 5556 5557 5560 5558 5556 5549 5557 5559 5555 5552 5565 5574 5573 5561 5545 5574 5567 5571 5577 5585 5578 5582 5583 5542 5556 5599 5619 5614 5610 5607 5606 5601 5595 5589
5579 5576 5583 5581 5552 5534 5554 5556 5551 5553 5554 5557 5557 5558 5559 5560 5563 5560 5560 5562 5561 5566 5571 5577 5566 5540 5569 5569 5568 5574 5572 5564 5551 5550 5551 5575 5607 5607 5600 5599 5595 5597 5591 5585 5577
5578 5574 5578 5567 5551 5561 5568 5564 5565 5561 5560 5560 5563 5563 5565 5559 5553 5562 5563 5561 5562 5571 5575 5575 5554 5572 5571 5581 5568 5573 5566 5559 5567 5544 5566 5576 5599 5606 5606 5597 5589 5586 5583 5575 5569
5569 5567 5563 5565 5565 5563 5567 5569 5570 5570 5568 5563 5568 5565 5569 5567 5565 5562 5561 5566 5566 5565 5565 5566 5572 5547 5567 5565 5568 5576 5578 5556 5562 5569 5582 5605 5587 5603 5593 5589 5588 5581 5570 5565 5560
5575 5572 5556 5556 5561 5577 5566 5569 5573 5569 5569 5572 5571 5570 5570 5572 5572 5572 5567 5566 5572 5563 5563 5553 5556 5555 5545 5556 5557 5559 5559 5554 5553 5559 5552 5562 5585 5592 5591 5578 5572 5570 5561 5558 5551
5563 5563 5568 5556 5560 5571 5572 5579 5578 5575 5569 5569 5571 5567 5570 5567 5566 5561 5555 5549 5563 5565 5552 5549 5542 5536 5565 5538 5545 5566 5562 5553 5557 5553 5561 5566 5596 5587 5583 5572 5572 5568 5561 5561 5551